[[{"header":{"parameterUnit":"m.s-1","parameterCategory":1,"la1":30.2991,"la2":30.254,"lo1":-89.0895,"lo2":-89.0444,"dx":0.0017,"dy":0.0017,"nx":28,"ny":28,"refTime":"2022-11-13T15:00:00:Z","depth":0,"parameterNumber":2,"parameterNumberName":"U-component_of_WINDS"},"data":[0,0,0,0,0,0,0,0,0,0,0,0,0,0,0,0,0,0,0,0,0,0,0,0,0,0,0,0,0,0,0,0,0,0,0,0,0,0,0,0,0,0,0,0,0,0,0,0,0,0,0,0,0,0,0,0,0,0,-4.2398,-4.2399,0,-4.2485,-4.2486,-4.2487,-4.2377,-4.2373,-4.2369,-4.2366,-4.2454,-4.246,-4.2466,0,0,0,0,0,0,0,0,0,0,0,0,0,-4.2135,-4.214,-4.2398,-4.2399,-4.24,-4.2485,-4.2486,-4.2487,-4.2378,-4.2373,-4.2368,-4.2364,-4.2452,-4.2459,-4.2466,0,0,0,0,0,0,0,0,0,0,0,0,0,-4.2238,-4.2142,-4.2398,-4.2356,-4.2353,-4.2485,-4.2486,-4.2488,-4.2379,-4.2373,-4.2367,-4.2362,-4.2449,-4.2458,-4.2467,-4.2644,0,0,-4.2495,-4.2499,0,0,0,0,0,0,0,0,-4.2232,-4.2248,-4.2361,-4.2359,-4.2356,-4.2414,-4.2425,-4.254,-4.2381,-4.2369,-4.2366,-4.2359,-4.2446,-4.2455,-4.2484,-4.2648,-4.2652,-4.2496,-4.2502,-4.2505,-4.2508,0,0,0,0,0,0,0,-4.2225,-4.2244,-4.2432,-4.2363,-4.236,-4.2332,-4.234,-4.2447,-4.244,-4.237,-4.2362,-4.2374,-4.2443,-4.2476,-4.2485,-4.2653,-4.2496,-4.2504,-4.251,-4.2513,-4.2964,-4.297,0,0,0,0,0,0,-4.2223,-4.2238,-4.243,-4.2435,-4.2278,-4.2342,-4.2351,-4.2402,-4.2439,-4.2438,-4.2379,-4.2368,-4.2463,-4.2475,-4.2488,-4.2696,-4.2505,-4.2514,-4.2519,-4.2958,-4.2965,-4.2972,0,0,0,0,0,0,-4.2218,-4.2242,-4.2426,-4.2335,-4.2356,-4.2353,-4.2411,-4.2407,-4.2439,-4.2445,-4.2444,-4.2414,-4.2459,-4.2475,-4.2606,-4.2697,-4.2518,-4.2526,-4.295,-4.296,-4.2969,-4.3114,0,0,0,0,0,0,-4.2211,-4.224,-4.2308,-4.2337,-4.2361,-4.2544,-4.2417,-4.2413,-4.2455,-4.2442,-4.2478,-4.2478,-4.2455,-4.2593,-4.2615,-4.2707,-4.2534,-4.2942,-4.2954,-4.2966,-4.3101,-4.3128,-4.315,0,0,0,0,0,-4.2202,-4.2346,-4.2312,-4.2336,-4.2446,-4.2549,-4.2563,-4.2535,-4.2463,-4.2531,-4.2534,-4.2476,-4.2684,-4.2607,-4.2631,-4.2727,-4.2936,-4.2951,-4.2965,-4.309,-4.3122,-4.315,0,0,0,0,0,0,-4.2328,-4.2349,-4.2312,-4.247,-4.2508,-4.253,-4.2615,-4.257,-4.263,-4.2615,-4.2577,-4.2586,-4.2725,-4.2739,-4.2653,-4.2899,-4.2798,-4.2818,-4.2885,-4.2915,-4.294,-4.2933,-4.2541,0,0,0,0,0,-4.2374,-4.2457,-4.247,-4.2608,-4.2629,-4.2619,-4.2663,-4.2637,-4.2676,-4.2692,-4.2705,-4.2744,-4.2818,-4.2867,-4.2936,-4.3102,-4.3107,-4.318,-4.3205,-4.3225,-4.3243,-4.333,-4.3362,-4.3021,-4.302,-4.302,0,0,-4.2471,-4.2492,-4.2546,-4.2634,-4.2661,-4.2746,-4.2634,-4.2729,-4.2791,-4.2706,-4.283,-4.2841,-4.2882,-4.3031,-4.3097,-4.3047,-4.3338,-4.3243,-4.3259,-4.3266,-4.3348,-4.338,-4.3409,-4.303,-4.3029,-4.3027,0,0,-4.2689,-4.2714,-4.2831,-4.286,-4.2902,-4.2894,-4.2923,-4.2951,-4.2955,-4.3079,-4.3016,-4.3089,-4.3218,-4.3249,-4.3282,-4.351,-4.3458,-4.3533,-4.3662,-4.3747,-4.3774,-4.3798,-4.3878,-4.3907,-4.3551,-4.3551,-4.3552,0,-4.2803,-4.293,-4.2897,-4.2996,-4.3036,-4.2962,-4.3079,-4.3109,-4.3171,-4.32,-4.3142,-4.33,-4.3323,-4.3477,-4.3533,-4.3562,-4.3592,-4.3529,-4.3773,-4.3796,-4.3818,-4.3894,-4.3924,-4.356,-4.3559,-4.3558,-4.3557,0,-4.3067,-4.3156,-4.3245,-4.3307,-4.3356,-4.3464,-4.3446,-4.35,-4.347,-4.3468,-4.3593,-4.3617,-4.3688,-4.3723,-4.3695,-4.3873,-4.384,-4.3779,-4.3677,-4.386,-4.393,-4.3959,-4.3573,-4.357,-4.3567,-4.3565,0,0,-4.3369,-4.341,-4.3443,-4.3469,-4.351,-4.3577,-4.3681,-4.375,-4.3797,-4.3842,-4.3927,-4.4036,-4.3979,-4.4016,-4.399,-4.4066,-4.4243,-4.3994,-4.3995,-4.4039,-4.4439,-4.4485,-4.4519,-4.4209,-4.4215,-4.4219,-4.4435,0,-4.3587,-4.3767,-4.3739,-4.3912,-4.3993,-4.3923,-4.4013,-4.4047,-4.4047,-4.4114,-4.4114,-4.4192,-4.4111,-4.4133,-4.4204,-4.4207,-4.4323,-4.4191,-4.4287,-4.4291,-4.4278,-4.4556,-4.4605,-4.4808,-4.4463,-4.4468,-4.4471,0,-4.3865,-4.392,-4.4102,-4.4128,-4.4161,-4.4242,-4.4302,-4.4368,-4.4405,-4.4399,-4.444,-4.44,-4.4502,-4.4399,-4.4538,-4.4448,-4.4486,-4.4493,-4.45,-4.4507,-4.4392,-4.457,-4.4872,-4.4903,-4.4514,-4.4511,-4.4508,0,-4.4066,-4.4185,-4.4308,-4.4333,-4.4367,-4.4426,-4.4443,-4.4473,-4.4516,-4.4568,-4.4595,-4.4659,-4.4694,-4.4744,-4.4722,-4.4648,-4.4865,-4.4759,-4.4862,-4.4863,-4.491,-4.4908,-4.5222,-4.4936,-4.4936,-4.4935,-4.4935,0,-4.4312,-4.4425,-4.4399,-4.4475,-4.4599,-4.4565,-4.4689,-4.4697,-4.4724,-4.48,-4.4743,-4.4815,-4.4781,-4.4851,-4.4834,-4.4951,-4.4967,-4.4965,-4.4959,-4.4969,-4.497,-4.4993,-4.4978,-4.4943,-4.4942,-4.494,-4.4939,0,-4.4556,-4.4544,-4.4673,-4.4694,-4.4702,-4.4793,-4.481,-4.488,-4.4876,-4.4972,-4.4992,-4.4985,-4.5063,-4.5045,-4.5131,-4.512,-4.5266,-4.5243,-4.5254,-4.5248,-4.5351,-4.5342,-4.5691,-4.5735,-4.5422,-4.5425,-4.5428,0,-4.4714,-4.4799,-4.4829,-4.4876,-4.4897,-4.4973,-4.5016,-4.4985,-4.5032,-4.5079,-4.5144,-4.5217,-4.5273,-4.5401,-4.5403,-4.5468,-4.5445,-4.5563,-4.5454,-4.5462,-4.5445,-4.544,-4.5447,-4.5584,-4.5588,-4.5591,-4.5593,0,-4.4994,-4.4983,-4.5048,-4.5111,-4.5163,-4.5211,-4.5253,-4.5294,-4.5267,-4.5322,-4.5401,-4.5446,-4.5532,-4.5605,-4.5665,-4.568,-4.5633,-4.5627,-4.5654,-4.5666,-4.5668,-4.5667,-4.5312,-4.5619,-4.5617,-4.5615,-4.5613,-4.5612,-4.5199,-4.5271,-4.5303,-4.5377,-4.5405,-4.5445,-4.5512,-4.5515,-4.5581,-4.5649,-4.5627,-4.5717,-4.5749,-4.5823,-4.5846,-4.5915,-4.5871,-4.591,-4.592,-4.593,-4.5942,-4.5658,-4.5926,-4.5925,-4.5925,-4.5924,-4.5924,0,-4.5475,-4.5492,-4.556,-4.562,-4.5678,-4.5628,-4.5671,-4.5722,-4.5802,-4.5836,-4.5893,-4.5983,-4.6053,-4.6059,-4.6125,-4.6179,-4.6158,-4.6197,-4.6192,-4.6196,-4.5979,-4.5949,-4.6212,-4.6212,-4.6212,-4.6212,-4.6212,-4.6212,-4.5626,-4.5745,-4.5737,-4.5868,-4.5884,-4.5972,-4.6001,-4.6037,-4.6064,-4.6167,-4.6224,-4.6228,-4.6251,-4.6317,-4.6378,-4.6378,-4.6404,-4.6451,-4.6443,-4.624,-4.6211,-4.6184,-4.6155,-4.6458,-4.6458,-4.6654,-4.6656,-4.6657]},{"header":{"parameterUnit":"m.s-1","parameterCategory":1,"la1":30.2991,"la2":30.254,"lo1":-89.0895,"lo2":-89.0444,"dx":0.0017,"dy":0.0017,"nx":28,"ny":28,"refTime":"2022-11-13T15:00:00:Z","depth":0,"parameterNumber":3,"parameterNumberName":"V-component_of_WINDS"},"data":[0,0,0,0,0,0,0,0,0,0,0,0,0,0,0,0,0,0,0,0,0,0,0,0,0,0,0,0,0,0,0,0,0,0,0,0,0,0,0,0,0,0,0,0,0,0,0,0,0,0,0,0,0,0,0,0,0,0,-5.4594,-5.4595,0,-5.4675,-5.4676,-5.4677,-5.4612,-5.4609,-5.4606,-5.4603,-5.4681,-5.4686,-5.469,0,0,0,0,0,0,0,0,0,0,0,0,0,-5.4376,-5.438,-5.4594,-5.4595,-5.4596,-5.4675,-5.4676,-5.4677,-5.4612,-5.4609,-5.4605,-5.4602,-5.468,-5.4685,-5.4691,0,0,0,0,0,0,0,0,0,0,0,0,0,-5.4465,-5.4382,-5.4594,-5.4573,-5.4572,-5.4675,-5.4676,-5.4677,-5.4613,-5.4609,-5.4604,-5.4601,-5.4678,-5.4685,-5.4691,-5.4817,0,0,-5.4713,-5.4716,0,0,0,0,0,0,0,0,-5.446,-5.4473,-5.4575,-5.4575,-5.4574,-5.4629,-5.4627,-5.4724,-5.4614,-5.4597,-5.4603,-5.4599,-5.4667,-5.4674,-5.4698,-5.4821,-5.4824,-5.4713,-5.4717,-5.472,-5.4722,0,0,0,0,0,0,0,-5.4454,-5.4469,-5.4626,-5.4577,-5.4576,-5.4557,-5.4566,-5.4645,-5.4654,-5.4598,-5.4594,-5.4605,-5.4666,-5.4692,-5.47,-5.4825,-5.4713,-5.4719,-5.4724,-5.4726,-5.505,-5.5055,0,0,0,0,0,0,-5.4451,-5.4464,-5.4623,-5.4628,-5.4506,-5.4565,-5.4574,-5.4615,-5.4653,-5.4655,-5.4608,-5.4601,-5.4682,-5.4692,-5.4702,-5.4849,-5.472,-5.4727,-5.4731,-5.5046,-5.5051,-5.5056,0,0,0,0,0,0,-5.4446,-5.4465,-5.462,-5.4545,-5.4564,-5.4573,-5.462,-5.4619,-5.4646,-5.466,-5.4661,-5.4634,-5.4679,-5.4693,-5.4789,-5.4851,-5.473,-5.4736,-5.5041,-5.5048,-5.5054,-5.5146,0,0,0,0,0,0,-5.444,-5.4464,-5.4514,-5.4547,-5.4568,-5.4707,-5.4624,-5.4624,-5.4658,-5.465,-5.4685,-5.4686,-5.4677,-5.4779,-5.4795,-5.4859,-5.4742,-5.5035,-5.5044,-5.5052,-5.5138,-5.5155,-5.517,0,0,0,0,0,-5.4433,-5.4536,-5.4517,-5.4536,-5.4631,-5.4711,-5.4723,-5.4712,-5.4664,-5.4712,-5.4721,-5.4685,-5.4842,-5.4789,-5.4807,-5.4874,-5.5031,-5.5041,-5.5051,-5.513,-5.5152,-5.517,0,0,0,0,0,0,-5.4509,-5.454,-5.4519,-5.4637,-5.4672,-5.47,-5.4761,-5.4735,-5.4783,-5.4773,-5.4755,-5.4764,-5.4864,-5.4878,-5.4819,-5.4995,-5.4928,-5.4943,-5.4982,-5.5003,-5.5019,-5.5013,-5.4748,0,0,0,0,0,-5.454,-5.4605,-5.4628,-5.473,-5.4749,-5.4752,-5.4787,-5.4775,-5.481,-5.4824,-5.484,-5.4874,-5.493,-5.4967,-5.502,-5.514,-5.5144,-5.5194,-5.521,-5.5224,-5.5236,-5.5296,-5.5318,-5.5089,-5.5089,-5.5089,0,0,-5.4604,-5.4629,-5.4671,-5.4746,-5.4772,-5.4837,-5.4765,-5.4838,-5.4885,-5.4834,-5.4926,-5.4939,-5.4974,-5.5082,-5.513,-5.5097,-5.53,-5.5236,-5.5247,-5.5252,-5.5309,-5.5331,-5.535,-5.5096,-5.5095,-5.5093,0,0,-5.4754,-5.4781,-5.4867,-5.4894,-5.4934,-5.4936,-5.4956,-5.4988,-5.4995,-5.5087,-5.5049,-5.5104,-5.5203,-5.5229,-5.5255,-5.5412,-5.538,-5.543,-5.5515,-5.5575,-5.5592,-5.5608,-5.5662,-5.5682,-5.5442,-5.5442,-5.5442,0,-5.4828,-5.4927,-5.4914,-5.4989,-5.5022,-5.498,-5.5065,-5.5092,-5.5147,-5.5169,-5.5131,-5.5252,-5.5274,-5.5385,-5.5423,-5.5447,-5.5467,-5.5425,-5.5591,-5.5607,-5.5622,-5.5672,-5.5693,-5.5448,-5.5447,-5.5447,-5.5446,0,-5.5014,-5.5083,-5.5147,-5.5202,-5.5242,-5.5322,-5.5319,-5.536,-5.5344,-5.5349,-5.5441,-5.5465,-5.5521,-5.5547,-5.5532,-5.5655,-5.5633,-5.5594,-5.5526,-5.5649,-5.5696,-5.5716,-5.5456,-5.5454,-5.5452,-5.5451,0,0,-5.5215,-5.5261,-5.5284,-5.5308,-5.5348,-5.54,-5.5476,-5.5532,-5.5566,-5.5605,-5.5667,-5.575,-5.5713,-5.5743,-5.573,-5.5783,-5.5902,-5.5737,-5.5737,-5.5765,-5.6037,-5.6065,-5.6088,-5.5882,-5.5885,-5.5888,-5.6033,0,-5.5364,-5.5499,-5.5489,-5.5616,-5.5677,-5.5637,-5.5703,-5.5734,-5.5739,-5.579,-5.5796,-5.5854,-5.5803,-5.582,-5.5871,-5.5878,-5.5956,-5.5867,-5.5936,-5.5939,-5.5927,-5.6113,-5.6143,-5.6279,-5.6052,-5.6055,-5.6057,0,-5.5557,-5.5603,-5.5736,-5.5765,-5.579,-5.585,-5.5898,-5.5949,-5.5981,-5.5981,-5.6014,-5.5992,-5.6066,-5.5997,-5.6097,-5.6037,-5.6064,-5.6072,-5.6076,-5.6081,-5.6004,-5.612,-5.6322,-5.6341,-5.6087,-5.6084,-5.6082,0,-5.5687,-5.5782,-5.5873,-5.5894,-5.5931,-5.5973,-5.599,-5.6019,-5.6052,-5.6094,-5.6114,-5.6164,-5.6191,-5.6229,-5.6219,-5.6171,-5.6321,-5.6252,-5.632,-5.632,-5.6352,-5.635,-5.6559,-5.6374,-5.6373,-5.6373,-5.6373,0,-5.5854,-5.5936,-5.5932,-5.5988,-5.6077,-5.6064,-5.6152,-5.6163,-5.6189,-5.6244,-5.6212,-5.6264,-5.6249,-5.63,-5.6293,-5.6375,-5.6388,-5.6388,-5.6385,-5.639,-5.639,-5.6407,-5.6396,-5.6378,-5.6377,-5.6376,-5.6375,0,-5.6014,-5.6015,-5.6111,-5.6137,-5.6145,-5.621,-5.6231,-5.6282,-5.6285,-5.6355,-5.6371,-5.6374,-5.6432,-5.6427,-5.6492,-5.6486,-5.6587,-5.6574,-5.6577,-5.6573,-5.6641,-5.6634,-5.6866,-5.6895,-5.6693,-5.6695,-5.6697,0,-5.612,-5.6182,-5.6215,-5.625,-5.627,-5.6328,-5.6361,-5.6349,-5.6385,-5.6425,-5.6471,-5.6526,-5.6569,-5.6663,-5.667,-5.6718,-5.6704,-5.6782,-5.6711,-5.6713,-5.6702,-5.6698,-5.6703,-5.6796,-5.6798,-5.68,-5.6802,0,-5.6306,-5.6303,-5.6354,-5.6404,-5.6446,-5.6485,-5.652,-5.655,-5.6541,-5.6583,-5.6642,-5.6675,-5.6741,-5.6795,-5.6841,-5.6855,-5.6826,-5.6824,-5.6842,-5.6847,-5.6845,-5.6844,-5.6613,-5.6818,-5.6817,-5.6815,-5.6815,-5.6814,-5.644,-5.6493,-5.6524,-5.658,-5.6606,-5.6639,-5.6688,-5.6696,-5.6746,-5.68,-5.6789,-5.6855,-5.6882,-5.6941,-5.696,-5.7009,-5.6981,-5.7007,-5.7014,-5.702,-5.7026,-5.6839,-5.7018,-5.7017,-5.7017,-5.7016,-5.7016,0,-5.6623,-5.6641,-5.6693,-5.6744,-5.6788,-5.6758,-5.6795,-5.6833,-5.6892,-5.6921,-5.6964,-5.7031,-5.7082,-5.7093,-5.7142,-5.7179,-5.7167,-5.7192,-5.7188,-5.7191,-5.7051,-5.7029,-5.7201,-5.7201,-5.7201,-5.7201,-5.7201,-5.7201,-5.6723,-5.681,-5.681,-5.6907,-5.6923,-5.6989,-5.7012,-5.7041,-5.7064,-5.714,-5.7183,-5.719,-5.7211,-5.7261,-5.7306,-5.7307,-5.7325,-5.7356,-5.7352,-5.722,-5.7201,-5.7184,-5.7163,-5.736,-5.7361,-5.7488,-5.7489,-5.749]}]]